Wind_Speed
10 11 10 10 10 11 11 12 13 13 13 13 13 13 12 11 10 10 10 10 10 10 11 11 12 13 13 13 13 13 13 13 11 9 9 8 6 6 7 9 12 15 16 15 14 12 11 9 7 7 6 4 8 12 12 11 8 8 10 9 9 9 11 14 14 15 19 22 22 21 23 23 22 22 22 23 23 22 21 19 16 14 18 23 23 25 26 25
11 11 11 10 10 10 10 11 12 12 13 13 13 13 13 12 11 10 10 10 10 10 10 11 11 12 13 13 13 13 13 13 12 11 9 8 7 7 7 7 10 15 16 15 15 13 12 10 8 8 8 6 8 12 11 9 8 8 9 12 12 12 13 14 13 13 17 19 20 21 22 21 22 24 23 23 23 22 22 20 17 20 25 26 24 25 25 24
11 11 11 11 10 10 10 10 10 11 12 12 13 13 13 13 13 12 10 10 11 10 10 10 10 11 12 12 13 13 13 13 13 12 11 9 9 9 8 7 9 14 17 17 16 15 14 12 11 12 10 8 10 12 10 9 9 7 6 9 12 13 13 11 10 13 16 17 18 21 21 21 24 26 23 23 23 21 21 21 22 25 28 28 26 25 23 23
11 11 12 12 11 10 10 10 10 11 11 12 12 12 13 13 13 13 12 11 11 11 11 10 10 10 10 11 12 13 13 13 14 14 12 11 10 10 9 8 8 13 17 18 19 19 17 14 14 15 12 12 11 10 9 8 8 6 4 6 8 10 11 10 10 13 15 16 17 19 21 20 23 24 22 22 22 20 20 20 21 23 27 28 27 25 24 23
10 11 11 12 12 11 11 11 10 11 11 11 11 11 12 12 13 13 13 12 11 11 11 10 10 9 10 10 11 13 13 12 13 14 13 12 11 10 10 9 9 11 16 19 20 20 19 18 16 14 13 14 12 8 8 6 7 6 4 4 6 7 7 8 10 14 14 16 18 19 21 20 21 22 21 20 18 18 19 18 18 19 23 25 25 24 24 23
10 10 11 11 12 11 11 11 11 11 11 12 11 11 11 11 12 12 13 12 12 12 12 12 10 9 9 10 10 11 12 10 11 12 12 13 12 12 12 11 10 10 14 18 20 20 20 20 18 13 12 13 11 8 7 5 5 6 5 3 5 5 5 5 8 15 14 14 18 19 21 21 21 21 21 20 17 16 17 17 16 16 20 21 22 23 23 23
9 9 10 11 11 11 11 11 11 12 12 12 12 11 11 11 11 11 12 12 12 12 12 12 11 10 9 9 9 10 12 12 10 10 11 13 13 13 13 12 11 9 11 17 19 20 20 20 17 13 12 13 10 7 4 2 4 4 4 3 4 3 5 4 5 14 14 13 17 19 21 20 20 22 22 24 22 18 17 16 15 16 19 20 21 22 22 21
9 9 9 10 11 11 11 11 11 11 12 12 12 12 11 11 11 10 10 11 12 12 12 12 12 11 9 8 9 10 12 12 11 9 10 12 14 14 14 13 12 9 10 15 17 19 19 19 17 14 15 14 9 5 0 5 5 2 3 3 2 2 4 6 6 14 15 14 17 19 20 20 21 22 23 25 25 23 20 17 15 17 20 20 20 22 21 20
10 10 10 10 10 11 11 11 11 11 11 11 12 12 11 10 11 10 9 9 10 11 12 12 11 11 10 8 8 9 10 12 14 12 9 9 12 14 14 14 13 11 10 14 19 20 20 18 17 16 14 12 6 3 3 6 4 2 5 2 1 2 4 9 9 13 16 15 17 19 21 22 24 23 23 24 24 25 22 17 16 18 21 20 19 21 21 20
11 11 11 11 11 11 11 11 11 11 11 11 11 11 11 11 10 10 9 8 9 11 12 12 11 11 10 9 8 8 10 12 13 14 13 10 11 12 14 14 14 13 10 13 19 21 20 19 19 17 13 10 6 4 5 6 2 3 6 4 1 3 5 10 10 12 16 16 16 18 20 23 24 22 22 22 22 24 23 18 16 18 22 20 19 20 19 18
10 11 11 11 11 11 11 11 10 11 11 12 11 10 10 10 11 10 9 8 8 9 11 11 11 10 10 8 7 8 10 10 11 13 15 14 12 12 14 15 15 14 12 12 17 20 20 20 22 19 14 10 8 7 6 7 3 3 7 4 1 2 5 9 11 13 16 17 17 17 19 21 21 21 22 23 24 25 23 21 17 18 23 21 19 20 19 18
10 10 11 11 11 11 11 11 10 10 11 11 12 11 10 10 10 10 9 8 8 8 9 11 10 10 9 7 8 10 11 10 11 12 14 15 15 13 14 16 15 15 12 12 17 21 21 22 23 19 15 12 10 8 7 7 5 7 9 6 3 2 6 9 9 11 12 16 18 16 18 19 20 21 23 26 27 25 24 23 20 20 24 21 19 19 18 18
11 11 11 11 11 11 11 11 10 10 10 11 12 11 10 10 10 10 9 8 8 8 8 10 10 9 9 8 10 12 11 11 11 11 13 13 14 14 14 16 17 16 13 13 19 23 23 24 22 19 17 14 14 10 12 12 5 8 13 9 4 4 8 9 6 4 6 12 18 17 18 19 19 19 21 24 27 26 25 25 22 22 24 21 19 19 18 16
13 12 12 11 11 11 10 10 11 11 10 10 11 11 10 9 9 9 9 8 7 7 8 9 10 9 9 9 11 11 9 9 8 10 11 11 13 15 14 16 18 17 16 17 22 25 25 26 22 20 19 17 17 13 16 15 5 7 14 7 4 6 10 11 8 5 3 10 19 18 17 17 18 18 20 22 24 26 24 24 24 22 24 23 20 19 19 17
14 13 12 12 11 10 9 9 10 11 11 10 10 10 10 9 9 8 8 8 7 7 7 7 8 8 8 9 10 10 8 9 7 9 11 10 13 15 15 16 18 17 17 19 24 26 27 27 24 21 19 19 19 15 15 16 10 8 12 11 8 7 10 12 11 8 6 11 20 20 15 17 19 17 19 23 24 26 24 24 25 24 24 23 21 21 20 17
15 14 13 12 11 10 9 8 8 10 10 10 10 9 9 9 8 7 6 6 6 6 5 6 6 7 7 7 8 8 7 9 6 7 11 12 13 16 16 16 18 18 17 20 24 27 28 26 24 22 21 20 19 15 14 15 15 11 11 15 14 10 13 15 12 11 8 11 18 18 16 18 19 17 19 23 26 27 26 27 27 25 24 22 22 22 21 19
15 14 14 13 12 11 9 7 6 8 9 9 9 8 8 7 5 4 4 4 4 5 4 4 6 7 6 5 5 4 4 6 3 5 11 14 15 17 17 17 19 19 19 22 26 28 27 25 24 23 22 21 19 17 16 16 19 18 12 15 16 13 15 15 14 15 12 12 15 14 15 19 18 18 20 21 26 28 28 29 28 26 24 21 21 22 20 20
14 14 13 13 13 12 11 9 6 6 6 7 7 7 7 5 5 5 4 4 3 4 3 5 7 8 8 7 6 5 4 4 4 7 13 16 17 18 17 17 19 21 22 24 25 25 25 23 23 23 22 22 22 21 21 22 24 20 11 11 15 16 16 14 12 14 14 14 15 13 15 19 18 19 21 21 26 29 29 30 30 28 26 21 21 23 21 22
15 14 13 13 12 12 12 10 7 5 4 5 5 6 6 6 7 7 7 6 5 5 5 7 11 11 10 10 9 8 7 8 8 10 15 17 18 18 15 18 21 23 25 24 23 21 22 23 23 24 26 25 26 26 24 25 23 15 6 4 10 13 16 15 10 11 13 15 16 15 16 20 19 20 23 24 27 31 31 31 30 29 27 22 22 24 24 25
15 14 14 13 12 11 12 11 7 4 2 3 4 6 7 5 6 8 9 7 7 9 8 11 14 13 12 11 11 9 6 8 12 12 15 15 15 15 14 18 21 22 24 23 21 20 20 22 23 26 29 27 28 27 22 22 19 13 8 5 9 10 15 17 13 13 13 13 16 15 16 19 18 19 23 25 28 32 32 30 30 30 28 25 23 24 26 26
14 14 14 13 12 11 11 10 7 3 1 3 5 8 7 5 5 9 9 7 9 12 11 14 16 15 13 10 11 12 7 7 12 11 14 17 15 15 15 17 20 21 23 20 17 17 18 21 22 22 23 25 27 27 21 19 15 12 11 9 9 11 16 18 16 16 15 14 15 17 16 17 17 18 22 26 29 32 31 29 30 30 29 27 24 24 26 26
14 14 15 14 12 10 10 9 6 3 0 3 6 7 6 5 6 10 10 4 8 11 12 17 17 15 14 11 12 17 10 6 9 10 14 17 16 17 16 17 20 21 21 20 16 15 17 20 19 15 14 20 26 28 25 18 13 11 11 12 11 13 15 17 19 17 17 15 14 17 16 14 16 17 21 26 28 28 28 28 29 30 30 29 26 24 27 27
13 14 14 13 12 10 9 8 5 4 1 2 3 5 5 5 6 10 11 4 5 9 11 17 17 16 15 11 10 14 9 8 8 11 15 15 14 16 17 17 20 20 19 22 19 15 16 16 15 12 11 15 22 28 28 20 16 14 15 16 12 13 10 19 23 20 19 14 12 17 16 14 16 19 23 25 26 27 28 29 29 30 31 30 28 26 28 28
13 14 14 13 10 8 7 6 5 5 3 1 1 3 4 5 6 7 7 5 3 4 8 14 17 17 10 7 11 13 9 11 8 9 13 15 14 14 14 15 18 18 18 21 21 18 15 11 9 10 12 15 18 25 27 22 19 17 16 17 14 12 10 15 19 23 20 12 13 19 17 15 17 20 25 26 26 28 29 29 28 30 32 31 30 29 28 29
13 14 13 11 9 6 5 5 5 5 4 2 0 2 2 2 1 1 3 4 2 4 6 13 17 14 6 7 15 14 9 10 10 9 10 12 15 14 13 13 16 15 15 17 17 17 15 11 9 10 14 16 17 21 22 20 19 17 17 17 16 15 13 12 17 24 22 15 19 22 12 10 17 21 26 27 28 29 27 28 27 28 33 33 31 31 30 29
12 13 12 10 8 6 4 4 5 6 7 6 2 1 4 4 4 6 6 5 6 8 6 11 15 11 7 9 12 9 8 10 11 11 9 9 14 15 13 13 14 12 12 13 12 16 15 13 11 13 14 16 17 20 20 18 17 18 17 14 14 17 15 15 22 27 25 20 24 22 6 6 18 20 25 29 27 29 28 27 28 29 32 33 33 32 31 30
12 12 11 9 8 6 5 6 7 9 9 8 6 5 7 5 5 7 5 4 7 7 4 6 11 8 6 9 8 6 7 8 10 13 11 9 13 16 15 14 13 11 11 11 12 15 14 14 16 16 16 17 19 20 19 18 19 20 17 9 10 18 17 20 28 29 25 19 23 25 8 6 19 21 24 29 27 29 32 30 29 30 33 33 33 33 32 30
12 11 10 9 8 7 8 10 9 10 10 8 7 7 7 4 4 6 4 2 4 5 3 3 7 6 3 6 10 10 6 4 7 13 12 8 12 16 17 17 15 14 12 11 16 16 13 15 18 18 18 19 20 21 19 18 21 20 14 8 8 12 17 26 32 31 24 14 20 30 17 6 14 21 23 25 29 31 33 33 31 32 34 33 33 34 32 30
11 10 10 9 8 7 8 9 9 9 10 9 7 7 7 3 3 5 3 2 5 5 3 3 4 4 1 6 14 12 8 4 0 8 13 10 13 17 18 17 15 13 11 11 17 18 15 15 15 17 21 21 19 19 20 20 21 18 13 12 10 8 16 26 28 31 25 13 17 30 25 10 8 20 27 25 28 33 33 33 32 32 33 33 33 34 33 32
10 9 9 9 10 9 7 6 7 7 9 9 7 8 6 4 4 3 3 4 4 5 3 4 3 2 1 6 14 12 10 6 1 8 15 10 11 17 18 16 13 10 7 8 16 21 21 17 15 18 21 19 17 16 19 21 19 16 13 14 13 9 15 19 25 30 19 11 21 29 29 19 7 18 33 23 15 23 31 31 32 32 31 32 32 33 33 33
8 8 8 9 10 9 8 6 6 7 9 9 7 6 5 6 9 4 3 4 3 4 2 2 1 3 3 4 9 10 10 7 4 12 16 10 10 14 17 17 11 10 8 8 17 22 22 17 15 19 20 18 18 17 19 21 19 16 14 14 11 10 12 13 23 27 10 8 22 30 33 25 12 19 31 20 7 15 27 27 29 32 32 32 32 32 33 33
7 7 8 10 10 10 10 10 10 9 8 9 9 7 5 7 10 9 7 5 4 6 4 2 1 4 5 3 5 9 10 8 10 15 14 11 10 9 14 16 10 7 6 8 14 18 21 19 13 15 20 18 17 18 20 22 22 20 16 14 9 7 6 6 12 14 9 10 12 20 31 23 14 20 21 15 11 17 24 21 21 27 29 30 31 31 32 33
6 7 9 11 11 11 11 11 12 11 8 11 12 12 10 8 8 13 13 9 8 10 8 2 4 6 5 5 6 8 9 8 9 13 12 11 9 7 11 14 9 6 6 7 8 9 14 18 14 14 18 18 15 18 21 22 24 23 17 15 11 4 3 2 3 3 7 14 7 12 24 16 12 18 16 15 15 17 23 20 15 19 22 24 28 29 31 33
7 8 10 10 10 11 11 10 9 9 10 12 13 14 14 10 10 17 16 12 14 15 10 4 3 6 6 5 6 7 7 8 10 11 11 9 7 6 9 11 11 10 10 10 8 6 6 10 13 14 17 19 16 17 20 20 23 23 15 14 14 7 2 3 4 3 5 9 9 14 16 8 9 14 16 20 17 15 22 19 13 17 19 20 23 26 29 31
9 10 10 10 10 11 12 12 9 8 10 12 13 16 15 10 12 19 16 13 18 16 8 5 0 6 7 6 5 6 7 9 12 13 11 8 5 6 9 8 11 13 12 11 8 5 5 6 11 16 16 19 18 17 19 17 19 21 15 13 14 9 5 5 4 8 11 7 8 12 9 7 12 15 17 23 19 16 21 20 16 19 21 21 23 25 28 31
9 9 12 11 10 10 11 13 11 9 10 12 14 16 14 10 13 17 13 12 17 15 9 6 5 5 2 5 4 4 8 11 11 12 13 10 2 1 4 3 2 7 9 7 4 3 4 3 11 16 17 19 17 19 22 16 10 15 17 15 14 9 6 6 5 9 11 4 4 8 10 12 15 14 20 25 21 20 22 21 20 21 22 23 23 24 27 30
8 8 13 14 14 13 13 13 12 11 11 13 15 14 11 10 12 12 10 12 15 13 10 10 9 10 6 2 3 4 5 12 11 8 8 7 5 9 9 11 10 8 9 7 2 3 4 2 8 12 16 19 15 17 24 19 9 10 16 16 15 12 9 7 4 3 2 2 4 6 12 18 14 12 22 27 23 23 24 23 22 23 24 23 23 25 26 28
10 9 13 16 15 15 14 13 13 13 14 13 12 10 10 11 11 9 8 12 14 12 11 13 11 10 9 4 7 9 3 5 5 5 9 9 9 11 12 10 9 9 8 8 4 4 3 2 5 8 14 18 16 15 19 21 13 8 13 14 12 12 9 7 5 1 2 2 2 4 9 13 10 13 26 30 28 28 24 24 25 25 27 25 25 27 27 27
12 10 9 11 12 12 12 13 14 14 14 12 11 9 9 11 11 10 10 9 11 12 12 12 10 8 9 8 9 10 11 6 5 8 11 11 10 8 9 8 5 6 6 7 6 3 4 1 1 7 14 18 19 18 16 20 17 9 10 11 10 9 6 6 8 4 3 3 3 3 4 5 9 19 30 31 33 31 24 25 28 26 28 28 28 28 28 28
11 9 7 7 10 10 9 9 11 13 12 11 10 9 8 9 10 10 11 9 7 9 11 10 9 9 8 8 9 9 12 12 11 9 6 5 5 0 2 7 3 2 3 4 6 1 3 4 6 6 17 19 18 18 17 20 18 11 9 8 8 9 5 4 7 7 4 3 5 4 1 5 14 24 30 30 33 32 24 24 29 28 28 28 28 27 26 27
12 11 8 7 8 8 6 5 9 11 9 8 7 7 8 10 9 8 8 8 7 7 9 7 7 10 8 9 12 8 8 12 13 11 5 5 4 4 5 9 8 4 2 3 6 3 2 4 9 6 12 12 11 13 16 18 15 9 6 5 7 8 5 3 5 6 5 3 9 10 4 5 17 25 27 28 31 31 26 26 30 30 28 28 27 26 25 26
12 11 9 8 5 4 3 3 7 8 7 8 6 6 7 8 8 8 6 5 5 6 8 6 5 8 7 8 12 8 5 7 9 10 8 6 7 6 7 7 8 8 5 3 3 3 3 4 7 6 5 6 9 11 11 13 13 8 4 4 6 6 4 3 4 3 2 4 13 16 7 6 16 22 25 27 28 26 25 28 31 29 28 27 27 27 25 24
9 11 11 10 7 5 4 3 5 6 6 6 6 5 6 4 3 7 9 9 7 6 8 8 6 6 6 7 9 8 5 6 7 7 8 6 3 4 7 8 6 6 3 4 4 3 2 4 5 3 4 6 10 10 7 8 10 10 7 5 5 4 2 3 5 4 5 8 15 14 5 7 17 18 20 26 26 23 22 25 28 27 27 27 26 26 25 23
8 10 11 9 7 6 6 7 5 5 5 5 5 3 3 4 2 3 8 11 9 8 8 7 8 5 6 10 9 7 5 6 8 8 6 3 1 2 6 8 6 5 1 3 4 3 1 3 5 5 3 3 5 4 2 3 5 8 9 7 7 2 1 2 6 8 7 10 19 16 6 11 21 19 20 24 24 23 24 24 23 22 24 25 25 25 24 23
7 7 7 6 5 3 5 8 5 3 3 3 4 3 2 5 6 3 6 7 6 8 6 5 9 2 9 8 9 6 6 7 9 7 5 3 3 2 5 5 3 2 0 4 5 4 5 6 7 8 7 4 2 3 6 5 3 1 4 8 8 1 2 4 5 10 9 10 20 19 14 20 24 21 22 24 23 24 22 21 19 18 20 22 22 23 22 23
9 9 8 7 6 3 3 5 5 3 3 2 4 7 5 6 7 5 6 6 4 7 7 6 8 4 12 5 7 7 8 7 8 7 6 5 5 4 7 8 6 3 0 5 7 5 6 9 8 9 8 6 5 7 9 9 8 6 5 8 6 2 3 6 5 9 11 13 17 18 20 28 27 22 23 23 23 23 22 20 17 14 17 19 20 21 20 21
9 9 9 9 8 5 5 6 6 5 4 3 3 6 5 5 7 5 5 6 4 5 6 6 6 7 10 5 5 8 7 5 8 10 9 8 6 7 10 11 7 4 1 5 8 7 6 8 6 5 5 3 3 7 8 9 12 12 11 10 6 4 3 5 8 10 14 13 12 18 25 29 30 26 23 22 21 21 22 20 15 12 14 16 18 20 21 21
6 6 6 7 7 6 5 5 5 5 3 5 5 4 3 6 7 5 5 6 4 3 3 4 3 4 6 7 8 8 6 5 6 9 9 8 6 7 8 7 6 4 2 3 6 7 6 6 5 3 4 1 1 4 6 7 11 14 17 16 11 8 9 9 8 8 11 7 10 23 28 29 31 28 23 22 20 19 20 17 13 11 13 14 15 17 19 21
4 5 6 6 6 7 7 6 4 3 3 7 8 6 3 4 5 5 4 5 5 4 4 5 5 3 3 6 7 7 7 5 4 5 7 8 7 6 7 7 5 5 5 3 4 6 5 4 3 3 2 1 1 3 3 6 11 14 15 16 15 15 13 10 8 6 7 6 13 28 30 27 29 27 23 22 19 18 19 17 14 14 14 15 16 16 17 19
5 6 7 5 5 9 8 6 4 2 4 7 6 4 2 2 2 3 5 7 9 9 8 8 7 4 3 5 8 10 9 6 5 4 4 6 6 6 6 6 5 3 4 4 4 6 5 3 3 7 5 3 1 0 1 5 11 13 11 11 14 16 13 12 12 8 10 16 24 30 30 29 28 25 23 22 19 18 18 17 16 14 13 13 14 14 16 18
7 6 6 6 8 9 7 5 3 1 3 5 4 3 2 2 2 4 6 8 10 9 9 9 6 5 4 5 9 13 11 9 8 6 3 4 5 4 3 4 4 2 4 6 4 6 6 5 4 7 7 6 4 2 2 3 7 10 10 10 9 10 10 10 9 6 10 22 32 32 31 32 30 26 24 22 21 21 20 18 15 13 12 11 12 12 13 15
9 8 9 10 10 8 6 5 4 2 3 4 3 1 1 3 4 6 7 9 5 2 5 9 7 6 5 5 7 10 10 10 10 9 6 4 2 1 2 2 1 2 3 3 1 3 5 5 5 6 5 4 5 4 4 3 3 7 10 9 7 4 5 7 8 9 8 16 27 31 31 32 30 27 27 27 25 23 21 18 12 9 9 8 12 15 14 14
Wind_Direction
327 322 317 312 305 298 292 288 285 283 282 281 280 278 276 273 270 269 269 266 258 252 249 247 245 242 239 239 238 239 239 236 231 228 231 228 219 216 208 195 194 195 194 193 194 193 183 181 173 144 150 150 102 88 71 61 51 50 53 54 72 87 106 118 127 146 157 155 156 158 153 153 151 150 150 140 135 135 140 154 160 167 158 148 146 144 147 149
328 325 322 319 315 309 301 294 289 284 282 280 279 277 276 274 270 267 267 268 265 257 250 247 246 244 241 238 237 237 237 236 232 226 225 222 213 213 212 196 189 192 191 187 189 188 180 175 165 142 139 132 98 80 66 63 61 58 63 68 78 94 110 118 127 147 160 158 156 159 158 159 153 151 151 142 140 142 150 160 166 165 155 151 152 150 149 148
325 323 320 319 318 314 309 303 296 290 286 282 279 278 276 274 272 269 265 265 267 264 257 248 245 244 241 239 237 235 233 233 232 226 220 215 209 207 210 200 188 190 187 183 184 182 175 173 158 145 136 113 93 80 69 63 61 56 67 81 83 92 111 121 131 149 160 163 161 161 163 160 152 151 152 146 144 151 163 167 166 164 157 155 157 155 152 147
320 318 316 315 314 312 310 306 302 297 292 288 284 279 276 274 271 269 266 265 265 265 263 254 246 243 241 238 236 234 232 230 229 226 218 214 208 202 207 201 193 192 187 182 183 182 174 174 168 158 146 117 98 84 76 59 49 45 55 97 95 90 105 114 132 149 159 169 168 164 164 162 154 152 154 153 152 161 175 170 164 162 157 159 159 157 155 150
319 316 314 311 310 309 307 305 303 299 297 294 290 286 280 275 271 268 266 264 263 264 262 258 251 241 238 235 234 232 230 229 229 226 218 214 206 199 203 200 198 196 190 184 184 185 176 177 184 174 155 130 116 103 90 59 35 40 41 104 120 102 111 117 133 151 160 169 173 171 168 165 158 156 158 163 165 167 169 164 163 162 157 161 159 156 156 154
318 316 313 311 308 306 305 304 302 300 299 297 295 292 288 281 275 269 265 262 262 261 260 260 255 244 236 231 231 229 225 222 223 224 217 212 203 198 199 198 201 196 193 189 184 186 178 182 192 179 153 132 122 115 93 50 21 39 48 101 124 110 134 133 141 157 162 166 174 176 171 167 161 158 161 168 172 167 160 155 161 163 158 160 158 157 159 156
320 316 311 308 306 304 303 301 300 299 298 297 296 295 293 288 281 274 267 261 258 258 259 258 256 249 238 228 227 223 218 215 217 221 215 209 201 196 196 197 201 193 194 192 187 185 178 184 188 165 139 125 121 117 88 4 338 10 46 95 116 107 143 142 157 162 160 161 170 176 173 171 162 160 167 168 167 166 162 158 160 163 162 161 157 157 159 156
322 316 310 305 302 301 301 300 299 298 297 297 296 295 294 291 287 281 273 263 256 255 255 255 255 252 242 229 223 216 215 214 212 212 210 208 201 194 192 195 196 189 191 189 188 184 177 185 178 150 131 122 120 122 288 290 304 342 81 84 63 65 143 150 171 164 160 160 167 177 174 170 164 165 172 166 163 164 163 165 164 165 167 164 157 157 160 158
322 316 311 306 302 300 300 299 298 296 296 295 295 295 294 291 289 285 279 268 258 251 251 253 252 250 246 235 222 213 213 212 209 206 200 202 200 195 191 192 191 187 187 182 185 182 177 182 164 139 127 123 130 144 254 270 298 60 112 112 351 306 182 161 165 162 163 163 169 179 176 175 169 166 171 164 163 163 160 168 167 168 171 166 161 159 160 161
321 316 313 309 305 302 301 300 298 295 294 292 292 294 293 290 287 285 282 272 259 250 247 248 248 249 244 237 225 209 210 212 210 208 203 201 196 195 191 190 189 185 184 183 185 180 174 173 154 139 137 140 161 187 251 262 293 82 114 132 290 289 202 173 172 166 163 166 174 179 178 182 172 165 169 163 164 163 160 170 169 172 176 168 165 164 162 164
324 317 314 312 308 305 302 299 296 292 290 289 289 290 291 289 285 284 283 275 263 249 243 242 243 244 239 237 224 205 209 210 210 210 209 208 200 195 192 189 189 185 180 179 181 174 170 170 157 149 149 153 175 190 238 260 250 165 138 148 309 17 167 176 188 181 169 170 176 180 183 181 169 168 171 164 167 166 162 170 173 176 177 172 167 165 164 168
332 326 320 317 313 308 303 297 292 286 283 283 283 285 286 287 285 283 281 275 265 252 241 237 235 236 233 224 208 207 210 202 201 206 208 210 205 198 192 187 187 185 175 172 174 167 170 173 160 153 152 162 185 185 202 219 210 192 184 205 252 75 155 176 185 186 183 179 172 181 190 176 165 170 169 166 169 170 166 169 176 179 177 174 169 168 170 172
340 335 329 325 319 312 305 295 286 279 275 274 276 278 280 283 284 283 280 275 267 256 241 231 227 227 222 203 200 214 218 199 183 192 200 200 201 196 189 186 185 179 167 168 168 165 173 174 162 158 159 172 194 184 175 183 175 188 199 228 247 145 163 175 169 179 215 193 172 179 193 174 163 168 168 168 168 171 172 168 173 178 178 178 173 173 174 175
344 343 339 335 327 319 310 297 283 273 268 267 267 271 276 280 282 282 280 276 270 258 243 230 222 218 216 202 202 214 228 218 182 178 190 187 191 192 186 186 185 176 165 166 167 169 177 176 168 168 170 182 194 180 172 177 167 194 199 220 236 167 166 171 164 158 194 196 178 181 198 180 164 164 169 172 168 172 175 167 168 173 179 180 176 176 175 177
351 355 353 349 342 332 319 302 285 272 264 260 261 266 272 278 281 284 282 277 272 261 245 231 218 212 215 208 206 208 220 235 209 174 176 177 183 187 185 186 185 175 165 167 169 173 180 179 175 175 181 188 189 183 183 181 171 191 193 185 195 190 178 176 173 169 167 188 184 187 200 185 171 165 170 177 173 174 174 168 165 171 182 181 176 178 176 174
357 2 4 2 355 346 334 315 292 276 265 257 258 263 269 277 281 285 283 277 272 263 246 228 206 196 210 210 205 205 219 242 232 176 169 168 174 181 182 183 181 170 162 169 174 177 181 183 181 181 189 189 185 185 188 187 181 189 201 193 197 200 186 179 178 182 177 185 187 190 197 186 178 170 169 177 177 175 175 172 167 171 186 183 177 180 176 170
359 4 8 9 4 360 352 336 309 286 270 257 256 261 266 271 270 271 269 261 263 258 237 198 181 171 172 177 185 198 238 251 237 182 172 163 168 173 174 181 181 167 161 172 177 179 181 185 187 189 193 188 182 183 182 188 188 186 204 211 210 207 191 181 182 186 179 184 189 189 194 187 179 171 169 177 182 179 175 175 171 173 187 186 180 180 175 171
357 1 6 8 8 10 6 357 337 303 277 257 253 255 255 245 235 233 234 232 228 233 207 158 158 155 142 135 144 152 181 195 163 171 169 162 165 162 164 181 179 164 164 174 177 179 182 186 192 197 201 190 179 183 182 183 182 179 191 211 206 203 200 197 194 187 174 178 186 181 184 184 178 172 173 181 185 180 176 177 174 175 187 188 183 182 174 172
352 356 360 2 6 11 12 11 358 328 290 252 241 239 237 231 230 234 239 231 201 196 194 161 147 139 131 122 117 127 150 160 152 157 155 159 163 152 155 174 172 167 170 176 176 177 183 190 199 202 202 192 182 186 185 179 179 174 161 211 223 217 218 219 206 192 179 174 181 179 179 180 179 174 176 183 185 179 176 179 176 177 187 190 188 184 174 174
348 351 355 358 3 8 12 14 8 352 302 232 217 219 218 216 232 245 247 237 208 193 181 165 148 130 121 112 109 116 128 141 145 150 147 153 164 155 160 170 168 171 175 178 179 178 185 194 207 207 200 194 185 187 188 181 184 186 175 224 266 254 239 229 208 201 195 173 173 180 182 182 182 178 177 181 183 181 180 180 177 180 188 191 193 186 174 177
347 350 355 359 4 9 11 13 14 11 286 207 211 215 211 209 244 267 262 236 213 202 178 160 147 131 124 122 127 130 127 149 151 152 148 150 165 169 174 174 172 177 177 177 179 182 192 201 209 208 203 203 193 190 194 193 196 205 208 242 273 267 257 240 217 203 192 175 169 173 180 183 186 185 180 181 184 184 183 181 180 183 189 191 195 191 177 179
349 352 358 3 6 10 15 20 24 23 275 216 219 221 227 230 257 287 285 240 206 209 183 162 151 134 123 127 146 140 138 180 164 158 158 157 171 181 182 180 180 183 178 175 178 188 201 210 211 204 201 207 201 198 203 208 216 217 233 262 277 281 263 222 209 202 185 181 172 164 172 180 185 187 181 182 185 185 185 184 182 184 190 192 196 192 180 181
353 356 2 6 9 16 24 34 45 37 359 257 237 237 258 262 265 284 289 276 220 215 185 167 155 133 115 106 137 143 158 208 176 161 172 171 178 186 188 185 183 185 182 181 181 190 206 213 213 203 191 194 198 202 207 218 225 225 245 260 268 281 244 185 191 195 180 186 180 159 162 173 182 186 182 184 188 189 189 189 186 187 192 195 197 192 183 187
357 359 4 8 13 22 25 35 48 47 52 24 326 269 282 286 272 271 284 302 259 209 184 176 159 140 119 96 138 152 182 207 187 171 181 181 183 186 186 188 189 187 185 185 185 196 204 188 189 202 184 176 187 198 207 218 224 227 242 250 250 247 210 173 184 184 178 200 192 161 153 166 179 183 184 187 190 192 192 192 194 195 196 195 195 193 189 193
0 1 6 9 16 22 18 26 27 26 41 37 248 242 312 335 289 325 357 352 41 120 162 177 166 152 136 123 145 164 196 198 192 197 194 189 190 184 171 181 193 187 181 184 190 206 201 158 166 204 187 179 188 195 203 215 227 236 234 235 238 217 190 178 180 173 175 199 192 170 147 167 186 186 185 187 190 192 193 197 201 200 201 198 193 194 194 195
4 4 9 12 17 21 16 10 348 353 5 5 23 77 26 46 49 41 40 36 80 110 132 167 173 174 174 159 151 172 207 198 190 195 202 199 191 180 168 179 191 183 177 181 197 218 204 170 183 210 199 194 200 201 201 207 232 241 221 217 223 202 189 188 183 175 180 193 189 182 156 164 191 194 189 189 191 194 196 197 201 202 203 201 194 196 198 195
8 9 14 18 17 18 12 355 350 3 13 20 41 53 43 44 36 43 61 59 83 114 123 158 181 191 201 197 182 179 201 203 192 194 203 204 187 179 177 185 193 189 180 190 217 223 204 187 198 214 214 210 213 209 197 204 231 228 203 207 223 206 203 196 188 185 191 193 185 189 197 171 191 197 191 192 193 194 199 199 199 200 201 201 198 199 202 200
14 15 21 24 16 18 19 9 12 22 36 53 65 67 67 68 43 52 74 76 81 111 120 132 170 187 217 204 189 185 188 182 194 201 199 190 187 187 186 188 196 199 194 212 229 221 204 199 200 211 219 217 217 209 194 204 226 221 206 226 232 209 204 192 187 192 197 191 181 193 209 187 187 195 190 196 200 198 200 199 197 198 198 200 201 201 204 204
21 23 25 28 24 27 29 23 25 32 45 62 75 84 91 85 47 45 50 92 94 91 123 151 165 186 217 183 185 193 195 172 203 201 189 180 192 199 197 194 200 209 213 231 235 225 216 208 199 208 218 219 217 208 198 204 218 224 225 227 221 195 191 188 189 197 198 198 195 196 200 192 183 196 192 196 207 206 200 197 198 198 198 200 202 204 205 204
29 34 31 33 33 32 40 40 40 49 55 62 76 89 93 62 40 36 33 59 74 63 115 174 177 186 219 183 189 199 198 193 337 194 188 183 193 204 207 203 210 233 250 246 232 225 217 213 217 220 218 217 217 210 201 199 205 219 227 232 234 209 192 192 192 196 193 208 220 207 197 194 187 196 194 193 212 209 197 195 198 198 199 201 202 205 205 204
39 48 45 46 48 45 53 61 59 68 67 58 64 92 104 57 44 43 37 47 34 15 50 186 202 210 226 190 184 191 190 190 179 181 184 180 188 209 213 210 226 255 270 240 222 221 217 218 230 223 215 217 222 218 207 198 200 215 229 234 234 210 204 199 187 192 199 218 220 211 200 199 200 201 199 196 217 205 193 192 194 195 198 199 201 204 205 204
53 60 59 59 63 64 68 70 61 61 65 59 68 97 104 61 41 26 16 29 12 354 358 288 238 179 195 197 167 178 182 171 166 177 187 191 197 216 212 209 225 240 247 228 219 224 222 221 222 212 211 215 220 220 211 205 208 217 226 219 209 196 207 205 179 187 217 223 215 203 197 202 217 218 214 207 204 196 191 188 187 191 195 196 198 201 203 204
70 71 72 68 70 73 73 73 63 60 68 65 70 77 68 55 35 10 2 13 8 3 15 315 212 145 149 198 192 192 190 175 177 186 192 198 209 227 210 208 218 214 218 231 239 247 230 222 221 214 212 210 210 206 199 203 210 214 219 209 197 169 124 195 195 160 214 223 216 182 190 200 215 221 228 218 201 190 188 185 184 192 194 196 199 199 201 203
89 83 80 77 82 81 74 76 73 67 65 56 58 60 50 44 28 6 360 11 6 2 21 14 238 171 152 180 187 200 192 173 178 177 175 192 213 218 202 206 223 232 248 264 288 298 246 231 227 218 211 204 200 195 190 195 203 207 218 212 202 196 167 206 205 147 181 193 153 155 181 201 197 204 214 205 197 195 191 186 188 195 194 196 199 199 202 204
100 87 80 80 88 88 80 82 81 67 58 56 61 55 38 29 18 6 1 6 4 4 22 30 231 176 168 171 184 215 203 173 173 176 185 207 228 217 207 213 229 238 253 267 284 285 262 244 212 203 204 202 200 203 200 194 195 203 215 214 204 202 211 213 185 181 190 171 131 148 165 184 187 193 194 184 180 191 193 192 197 198 197 198 198 200 203 202
114 88 77 81 87 86 88 87 78 68 64 64 63 50 34 28 17 5 0 5 9 8 7 19 60 80 127 187 191 240 215 183 179 196 206 209 190 163 183 129 174 220 226 238 256 288 303 228 182 182 195 198 198 208 208 198 193 207 214 214 205 197 220 237 210 193 197 177 124 137 134 152 168 179 186 180 176 184 190 194 199 198 200 203 201 199 200 200
134 100 80 87 91 85 88 88 76 69 64 57 49 39 32 32 18 360 358 14 16 9 7 24 44 36 17 205 77 30 204 186 183 198 193 172 106 81 89 88 92 141 183 201 208 21 344 242 161 166 186 186 187 206 206 199 197 205 210 213 208 209 235 249 226 192 184 118 120 128 136 151 156 165 183 184 182 186 191 195 196 197 200 203 204 201 199 200
121 108 86 87 88 80 75 74 71 65 55 47 43 42 38 36 32 17 7 17 17 13 24 36 41 41 32 52 80 58 53 188 174 129 103 93 82 71 69 81 101 118 154 182 172 60 358 252 150 159 181 176 181 202 200 198 203 199 203 210 211 214 225 224 212 184 103 115 103 102 136 154 160 168 179 185 186 187 192 193 192 194 196 198 201 201 201 202
108 111 103 86 74 64 54 49 57 56 48 47 47 45 36 33 41 29 5 10 19 18 26 27 30 46 43 57 91 68 36 40 79 90 93 74 51 46 45 53 107 122 121 167 178 71 30 333 119 156 170 170 183 197 193 194 201 200 199 211 218 216 208 206 212 194 149 143 132 123 144 177 188 177 178 184 187 189 194 193 192 191 191 195 199 199 200 201
107 111 119 84 54 43 35 30 37 41 49 58 43 32 34 34 42 29 8 16 27 14 12 9 20 46 52 61 74 52 41 66 81 69 81 81 56 258 317 11 24 147 103 165 191 108 30 353 6 117 158 169 184 195 192 192 200 208 209 218 223 215 206 214 218 209 192 146 129 136 186 200 188 180 179 182 184 189 193 191 192 192 191 195 198 199 199 199
113 111 104 80 51 34 30 28 28 27 39 50 31 29 37 25 28 28 8 20 41 27 14 8 30 51 58 57 53 47 59 82 88 74 84 160 177 225 279 341 347 342 344 205 203 248 321 350 5 60 142 157 170 182 189 193 199 199 195 231 237 215 212 229 230 229 230 196 165 165 163 185 184 183 186 188 186 186 185 186 190 193 194 197 198 200 201 201
117 117 101 89 86 60 45 47 34 16 14 37 45 50 34 9 19 37 17 15 45 41 35 46 58 52 59 60 51 50 71 82 88 85 95 157 207 254 285 310 336 346 328 270 235 258 297 343 4 39 107 129 150 165 182 198 201 188 183 272 255 220 224 238 239 239 223 188 169 159 139 158 179 185 191 192 187 177 174 183 190 193 197 199 200 201 203 205
113 108 93 89 100 82 44 28 34 15 6 37 60 48 28 19 50 57 47 47 53 37 41 55 36 25 67 79 57 44 51 70 75 84 101 125 189 274 285 282 323 354 320 269 261 245 294 333 353 44 127 154 161 168 183 203 209 209 223 279 279 241 263 271 244 210 153 152 153 141 109 165 173 183 196 194 191 185 181 186 190 194 197 199 202 205 205 208
115 106 97 90 91 72 25 7 18 32 23 34 51 26 2 30 61 88 61 59 58 41 52 60 13 358 107 85 60 48 52 78 85 96 116 101 40 333 305 291 312 354 2 215 230 216 98 20 9 34 88 158 169 177 186 182 199 216 226 270 308 276 209 296 236 193 159 161 163 149 125 167 168 173 187 191 189 188 192 194 191 192 197 200 204 208 209 210
122 115 121 103 68 28 3 8 13 72 74 50 57 48 351 29 42 76 69 72 69 40 56 65 13 352 159 91 54 83 94 92 91 96 115 65 13 355 343 332 337 359 61 166 182 171 102 85 60 58 76 90 87 37 32 59 99 191 251 300 322 278 219 296 229 179 164 167 172 166 151 157 166 173 181 187 188 183 188 195 192 192 199 203 206 209 213 215
131 120 126 123 88 53 61 57 55 96 110 127 84 61 44 43 51 67 66 81 90 49 60 68 35 129 165 98 51 105 107 97 88 89 111 87 53 54 52 58 74 60 188 166 169 162 120 108 89 71 76 73 59 40 31 44 62 53 14 353 358 3 275 266 214 182 172 161 168 181 173 163 167 175 177 182 190 188 187 191 192 198 205 210 212 212 213 218
140 126 115 124 119 97 108 107 87 80 93 138 110 53 42 68 78 88 75 67 78 68 71 77 70 130 153 135 112 120 114 114 97 91 99 89 76 91 82 74 75 66 145 189 188 185 155 138 126 73 54 54 52 39 33 50 65 66 58 56 67 62 67 153 158 161 166 157 154 176 180 169 166 172 175 176 184 187 186 186 187 199 212 217 221 220 220 223
148 134 115 126 134 113 102 96 60 37 62 116 115 81 97 130 113 96 81 75 94 118 109 117 113 125 159 171 161 146 143 138 107 96 92 82 89 113 107 97 93 77 75 199 198 189 168 150 153 116 66 108 197 44 37 51 64 69 67 70 84 76 73 103 109 126 159 168 162 170 173 166 161 164 169 169 170 171 171 170 176 199 218 225 227 227 228 228
177 147 137 134 130 112 90 75 51 33 87 117 113 95 105 145 120 89 87 101 112 112 104 119 117 95 144 170 169 169 164 144 129 118 90 77 84 104 110 102 80 58 55 84 159 176 163 140 176 188 114 95 125 72 44 37 53 62 60 67 85 80 78 108 119 129 158 149 160 169 167 159 157 160 162 160 160 162 162 166 179 202 221 231 234 234 231 228
182 165 170 167 128 113 105 105 106 86 114 129 130 122 130 191 157 123 119 105 97 96 94 102 116 124 142 163 164 162 158 152 164 155 95 86 93 94 93 81 69 61 59 80 141 173 165 151 229 243 246 252 260 87 8 28 48 58 52 58 85 85 83 111 125 139 157 149 157 165 160 152 154 159 162 162 163 165 167 173 182 192 210 228 234 235 233 226
174 158 166 156 127 117 115 134 153 103 117 134 146 160 173 211 192 154 142 116 95 92 101 109 133 167 173 180 176 168 161 163 175 175 137 106 94 79 68 65 74 83 47 49 106 154 150 151 200 234 242 248 259 287 335 29 52 60 55 49 67 85 88 100 116 144 164 160 162 161 154 152 156 160 163 165 166 168 172 181 185 179 182 200 210 216 222 218
181 153 135 128 127 123 111 126 144 122 99 118 135 122 89 135 140 125 138 147 135 118 132 134 148 168 169 181 188 179 172 175 188 189 168 137 121 51 335 318 311 312 341 359 36 147 150 141 161 202 216 225 241 281 352 11 51 59 54 37 26 79 108 96 125 159 168 169 171 167 159 158 159 162 163 164 169 173 174 182 192 173 157 174 191 196 199 201
Height
3145 3145 3144 3144 3144 3143 3143 3143 3142 3142 3142 3142 3143 3143 3143 3144 3144 3144 3144 3145 3146 3146 3147 3147 3147 3148 3148 3149 3149 3150 3150 3152 3153 3154 3155 3156 3158 3158 3159 3161 3162 3164 3165 3166 3168 3169 3170 3171 3172 3173 3173 3174 3173 3173 3173 3174 3175 3175 3176 3176 3175 3173 3173 3174 3175 3175 3176 3177 3178 3180 3182 3184 3183 3184 3186 3187 3188 3190 3191 3194 3195 3195 3196 3197 3198 3199 3200 3201
3145 3144 3143 3143 3143 3142 3142 3142 3141 3141 3140 3140 3141 3141 3142 3142 3142 3143 3143 3143 3143 3144 3145 3146 3146 3146 3147 3147 3148 3149 3149 3150 3151 3153 3154 3155 3156 3157 3158 3159 3161 3162 3164 3165 3167 3168 3170 3171 3172 3172 3173 3173 3173 3173 3173 3175 3176 3176 3176 3176 3176 3175 3175 3175 3176 3177 3178 3178 3179 3181 3182 3185 3184 3183 3186 3187 3188 3189 3190 3192 3193 3194 3195 3197 3198 3199 3201 3202
3144 3144 3143 3142 3142 3141 3141 3141 3140 3139 3139 3139 3139 3139 3139 3140 3140 3141 3141 3141 3142 3142 3143 3144 3144 3145 3146 3146 3147 3148 3148 3149 3150 3151 3152 3154 3155 3156 3157 3158 3160 3161 3162 3164 3166 3167 3169 3170 3171 3172 3173 3173 3172 3173 3174 3176 3176 3176 3177 3177 3177 3176 3176 3176 3177 3178 3179 3179 3180 3181 3182 3185 3184 3184 3186 3187 3187 3189 3190 3190 3191 3192 3194 3195 3197 3199 3201 3202
3144 3143 3142 3141 3141 3140 3140 3139 3139 3138 3138 3137 3137 3137 3137 3138 3138 3139 3140 3140 3140 3140 3141 3142 3143 3144 3144 3145 3146 3146 3147 3148 3148 3149 3151 3152 3154 3155 3156 3157 3159 3160 3161 3163 3164 3165 3167 3169 3170 3171 3172 3172 3173 3173 3174 3176 3176 3177 3177 3178 3177 3177 3177 3176 3177 3178 3179 3180 3181 3181 3182 3184 3184 3184 3186 3186 3187 3188 3190 3190 3190 3192 3193 3195 3197 3199 3201 3203
3144 3143 3142 3141 3140 3139 3139 3138 3138 3137 3137 3136 3136 3136 3136 3136 3136 3137 3138 3138 3139 3139 3139 3140 3141 3142 3143 3144 3144 3145 3146 3147 3147 3148 3150 3151 3152 3154 3155 3156 3158 3159 3160 3161 3163 3164 3166 3168 3169 3170 3171 3171 3172 3173 3174 3175 3176 3177 3178 3178 3178 3177 3177 3177 3177 3178 3179 3180 3181 3182 3182 3183 3184 3184 3186 3187 3187 3187 3189 3191 3193 3194 3195 3196 3197 3200 3202 3203
3143 3142 3141 3140 3139 3138 3138 3137 3137 3136 3136 3135 3135 3135 3134 3134 3134 3135 3136 3137 3137 3138 3138 3138 3139 3140 3142 3142 3143 3144 3145 3146 3146 3147 3148 3150 3151 3153 3154 3155 3157 3158 3159 3161 3162 3164 3165 3168 3169 3169 3170 3171 3172 3173 3174 3175 3177 3177 3178 3178 3178 3178 3177 3177 3177 3178 3179 3180 3180 3182 3183 3183 3184 3185 3186 3188 3188 3189 3190 3192 3194 3196 3198 3198 3199 3201 3202 3204
3142 3141 3140 3139 3138 3137 3137 3136 3135 3135 3135 3134 3134 3134 3133 3133 3133 3133 3134 3135 3135 3136 3136 3136 3137 3139 3140 3141 3142 3143 3144 3144 3145 3146 3147 3148 3150 3151 3153 3154 3156 3157 3159 3160 3161 3163 3165 3167 3169 3169 3170 3170 3172 3173 3175 3176 3177 3178 3178 3179 3179 3179 3178 3178 3178 3178 3179 3180 3180 3182 3183 3183 3184 3185 3185 3187 3188 3189 3191 3193 3195 3196 3198 3200 3201 3202 3203 3205
3141 3140 3139 3138 3137 3136 3136 3135 3135 3134 3134 3133 3133 3133 3132 3132 3131 3131 3132 3133 3133 3134 3135 3135 3136 3137 3138 3139 3140 3141 3142 3144 3145 3145 3146 3147 3148 3150 3151 3153 3155 3156 3158 3159 3161 3163 3165 3167 3168 3169 3169 3170 3172 3173 3175 3176 3177 3178 3178 3179 3179 3179 3180 3180 3179 3179 3179 3180 3181 3182 3183 3184 3185 3184 3184 3185 3187 3189 3191 3194 3195 3197 3199 3200 3202 3203 3204 3206
3140 3139 3138 3137 3136 3135 3135 3134 3134 3133 3133 3132 3132 3131 3131 3131 3130 3130 3130 3131 3131 3132 3133 3133 3134 3135 3137 3138 3139 3140 3141 3142 3143 3144 3146 3147 3148 3149 3150 3152 3153 3155 3157 3158 3160 3162 3164 3167 3168 3168 3169 3171 3173 3173 3174 3175 3177 3178 3179 3179 3179 3179 3180 3181 3181 3179 3178 3179 3180 3181 3183 3183 3182 3183 3185 3187 3188 3190 3192 3195 3196 3197 3199 3200 3202 3204 3205 3206
3139 3138 3137 3136 3135 3134 3134 3133 3132 3132 3131 3131 3130 3130 3130 3129 3129 3128 3129 3129 3129 3130 3131 3132 3133 3134 3135 3136 3138 3139 3140 3141 3142 3143 3145 3146 3147 3148 3149 3151 3152 3154 3156 3157 3159 3161 3164 3167 3167 3167 3168 3170 3172 3173 3174 3175 3177 3178 3179 3179 3179 3179 3179 3182 3183 3180 3178 3179 3180 3182 3182 3182 3183 3184 3187 3190 3191 3192 3193 3195 3197 3198 3199 3201 3203 3205 3206 3207
3139 3137 3136 3135 3134 3133 3132 3132 3131 3131 3130 3129 3129 3129 3129 3128 3128 3127 3127 3128 3128 3128 3129 3130 3131 3132 3134 3135 3136 3138 3138 3139 3141 3142 3143 3145 3146 3147 3148 3150 3151 3153 3155 3156 3158 3161 3164 3166 3165 3165 3167 3169 3170 3172 3173 3174 3176 3178 3179 3179 3179 3179 3179 3181 3183 3183 3181 3180 3180 3182 3182 3182 3186 3187 3188 3191 3192 3192 3193 3194 3197 3198 3200 3201 3203 3205 3207 3208
3138 3136 3135 3134 3133 3132 3131 3130 3130 3129 3128 3128 3127 3127 3127 3127 3127 3126 3126 3126 3126 3126 3127 3128 3129 3131 3132 3133 3134 3135 3136 3138 3139 3140 3141 3143 3145 3146 3148 3149 3150 3152 3154 3156 3158 3161 3164 3165 3164 3164 3166 3167 3169 3171 3172 3174 3176 3178 3178 3178 3179 3179 3180 3181 3182 3184 3184 3181 3180 3183 3183 3183 3187 3188 3189 3191 3191 3193 3194 3194 3196 3198 3200 3201 3203 3205 3207 3208
3137 3135 3134 3132 3131 3130 3129 3128 3128 3127 3127 3126 3126 3126 3126 3126 3125 3125 3125 3125 3125 3125 3126 3126 3128 3129 3131 3132 3132 3133 3135 3137 3138 3139 3139 3141 3143 3145 3147 3148 3149 3151 3153 3156 3157 3160 3162 3163 3163 3164 3165 3166 3167 3169 3171 3174 3176 3176 3177 3177 3178 3178 3180 3181 3182 3183 3184 3184 3182 3183 3184 3184 3187 3189 3189 3190 3191 3192 3194 3195 3196 3199 3200 3201 3204 3205 3207 3208
3136 3134 3133 3131 3130 3128 3127 3127 3126 3125 3125 3125 3124 3124 3124 3124 3124 3124 3124 3124 3124 3124 3124 3125 3126 3128 3129 3131 3131 3132 3133 3135 3137 3138 3138 3140 3142 3144 3145 3147 3148 3150 3152 3155 3156 3158 3160 3161 3162 3163 3164 3164 3166 3168 3170 3173 3175 3175 3176 3177 3177 3177 3179 3180 3181 3181 3183 3185 3184 3183 3183 3184 3186 3188 3188 3189 3191 3193 3194 3195 3196 3199 3201 3202 3204 3205 3207 3208
3134 3133 3132 3130 3128 3127 3126 3125 3124 3124 3123 3123 3123 3123 3123 3123 3123 3123 3122 3123 3122 3123 3123 3124 3125 3127 3128 3130 3131 3132 3133 3133 3136 3137 3137 3139 3141 3143 3145 3146 3148 3149 3151 3153 3155 3158 3159 3160 3160 3162 3163 3164 3165 3168 3169 3171 3173 3173 3174 3175 3176 3176 3177 3178 3179 3179 3181 3183 3183 3182 3183 3184 3185 3187 3188 3189 3191 3193 3194 3195 3196 3198 3201 3202 3204 3205 3207 3209
3133 3132 3130 3129 3127 3126 3124 3123 3123 3122 3122 3122 3122 3122 3121 3121 3121 3121 3121 3121 3121 3122 3122 3123 3125 3126 3128 3129 3130 3132 3133 3133 3134 3136 3136 3138 3140 3142 3144 3145 3147 3148 3150 3153 3155 3157 3158 3158 3159 3160 3162 3163 3165 3167 3168 3170 3172 3173 3173 3173 3174 3174 3176 3177 3177 3178 3179 3181 3181 3181 3182 3182 3183 3186 3188 3189 3191 3192 3194 3195 3196 3198 3200 3202 3204 3205 3207 3209
3132 3131 3129 3128 3126 3125 3123 3122 3121 3121 3120 3121 3121 3121 3120 3120 3120 3120 3120 3120 3120 3120 3121 3122 3124 3125 3126 3128 3130 3131 3133 3133 3133 3135 3136 3137 3139 3141 3143 3145 3146 3148 3150 3152 3154 3155 3156 3157 3158 3159 3160 3163 3164 3166 3167 3168 3169 3171 3171 3171 3172 3173 3175 3176 3176 3177 3178 3179 3180 3180 3181 3182 3183 3185 3187 3188 3190 3192 3194 3195 3197 3198 3200 3202 3204 3205 3207 3209
3131 3130 3129 3127 3126 3124 3123 3121 3120 3120 3119 3120 3120 3119 3119 3119 3118 3118 3118 3118 3119 3119 3121 3122 3123 3124 3126 3127 3128 3130 3131 3132 3132 3134 3136 3137 3138 3140 3142 3145 3146 3147 3149 3151 3152 3153 3154 3155 3157 3158 3159 3161 3163 3164 3164 3165 3166 3169 3170 3171 3172 3174 3174 3175 3175 3175 3176 3177 3179 3180 3180 3181 3182 3184 3186 3188 3189 3191 3193 3195 3196 3198 3200 3202 3204 3205 3207 3208
3130 3129 3128 3127 3125 3124 3122 3121 3120 3119 3118 3119 3119 3118 3118 3118 3118 3117 3117 3117 3118 3118 3119 3121 3122 3123 3125 3126 3127 3128 3130 3131 3132 3133 3135 3136 3138 3139 3141 3144 3145 3146 3148 3149 3151 3152 3153 3154 3155 3156 3157 3159 3160 3162 3162 3164 3166 3168 3170 3172 3173 3174 3174 3174 3175 3176 3175 3175 3177 3178 3179 3180 3181 3182 3184 3186 3189 3191 3193 3195 3196 3197 3199 3202 3204 3205 3207 3208
3129 3128 3127 3125 3124 3123 3122 3120 3119 3118 3118 3118 3118 3117 3117 3118 3117 3116 3116 3116 3117 3117 3118 3119 3121 3122 3124 3125 3126 3127 3130 3131 3132 3133 3134 3136 3137 3138 3141 3143 3144 3146 3147 3148 3150 3151 3152 3153 3153 3154 3156 3158 3160 3161 3163 3165 3167 3168 3170 3171 3173 3174 3173 3173 3175 3176 3176 3176 3178 3179 3179 3180 3181 3182 3183 3185 3188 3190 3192 3194 3196 3197 3199 3201 3203 3205 3207 3208
3128 3126 3125 3124 3123 3122 3121 3120 3119 3118 3117 3117 3117 3116 3117 3117 3117 3116 3115 3116 3116 3116 3117 3119 3120 3121 3123 3124 3124 3125 3129 3131 3132 3133 3134 3136 3137 3138 3140 3142 3143 3144 3145 3148 3150 3150 3151 3151 3152 3154 3156 3158 3160 3161 3163 3164 3166 3168 3169 3169 3172 3173 3172 3172 3174 3176 3177 3177 3178 3179 3180 3181 3182 3182 3183 3185 3187 3189 3192 3194 3196 3197 3199 3201 3203 3205 3207 3208
3127 3126 3124 3123 3122 3121 3120 3119 3118 3118 3117 3117 3116 3116 3117 3117 3116 3115 3115 3115 3115 3116 3117 3118 3120 3121 3122 3123 3124 3124 3127 3131 3131 3133 3135 3135 3137 3138 3139 3141 3142 3143 3145 3147 3148 3149 3150 3150 3151 3154 3156 3157 3159 3160 3161 3163 3166 3167 3168 3169 3171 3171 3170 3172 3175 3176 3177 3177 3178 3179 3180 3181 3182 3183 3184 3186 3188 3190 3193 3194 3196 3197 3199 3201 3202 3204 3206 3207
3126 3125 3124 3122 3121 3120 3119 3119 3118 3118 3117 3117 3117 3116 3116 3116 3116 3115 3115 3115 3115 3115 3117 3118 3120 3121 3122 3123 3124 3124 3127 3130 3131 3132 3134 3135 3136 3138 3139 3140 3141 3143 3144 3145 3146 3148 3148 3149 3150 3153 3154 3155 3156 3159 3160 3162 3164 3165 3166 3169 3170 3169 3168 3170 3173 3175 3177 3178 3179 3179 3180 3181 3182 3184 3185 3187 3189 3191 3192 3193 3195 3197 3198 3200 3202 3203 3205 3206
3126 3124 3123 3122 3121 3120 3119 3119 3118 3118 3118 3117 3116 3116 3116 3116 3116 3115 3115 3115 3115 3115 3117 3119 3120 3121 3121 3122 3123 3126 3128 3130 3131 3132 3133 3134 3136 3137 3139 3140 3141 3142 3144 3145 3146 3147 3147 3148 3150 3152 3153 3153 3155 3157 3159 3160 3162 3163 3165 3168 3169 3169 3168 3169 3171 3174 3177 3179 3179 3178 3180 3182 3182 3183 3184 3186 3188 3189 3191 3193 3194 3196 3197 3199 3201 3202 3204 3205
3125 3124 3123 3122 3121 3120 3119 3118 3118 3117 3117 3116 3115 3115 3115 3115 3115 3115 3115 3114 3114 3115 3116 3118 3120 3120 3121 3123 3124 3126 3128 3129 3130 3132 3133 3134 3135 3137 3138 3140 3141 3142 3143 3145 3146 3147 3147 3147 3149 3151 3152 3153 3154 3155 3157 3159 3161 3161 3163 3166 3167 3168 3169 3171 3172 3174 3176 3177 3178 3177 3178 3182 3182 3182 3183 3184 3185 3187 3189 3191 3193 3195 3196 3197 3199 3201 3202 3204
3125 3124 3123 3122 3121 3120 3120 3119 3118 3117 3117 3117 3116 3115 3115 3115 3115 3115 3115 3115 3115 3116 3117 3118 3120 3121 3122 3124 3125 3126 3128 3128 3130 3131 3132 3134 3135 3136 3138 3139 3140 3142 3143 3145 3146 3146 3146 3146 3147 3149 3151 3152 3153 3153 3155 3157 3160 3160 3161 3164 3166 3168 3169 3170 3171 3171 3171 3172 3174 3174 3176 3180 3181 3181 3182 3183 3184 3185 3187 3189 3190 3192 3194 3195 3197 3199 3201 3202
3124 3123 3122 3121 3121 3120 3120 3119 3118 3117 3117 3117 3116 3115 3115 3116 3116 3116 3116 3116 3116 3117 3117 3119 3120 3121 3122 3123 3125 3126 3127 3128 3129 3130 3131 3134 3135 3136 3137 3138 3139 3141 3143 3145 3145 3144 3144 3145 3146 3147 3150 3151 3152 3152 3153 3156 3158 3157 3159 3163 3165 3166 3167 3168 3168 3168 3168 3169 3172 3174 3175 3177 3178 3179 3180 3182 3183 3184 3184 3185 3187 3189 3191 3193 3195 3197 3199 3201
3124 3123 3122 3121 3121 3120 3120 3120 3119 3118 3117 3117 3116 3116 3116 3116 3117 3116 3116 3117 3118 3117 3118 3119 3120 3121 3122 3123 3124 3125 3126 3127 3128 3129 3131 3133 3135 3136 3136 3137 3138 3140 3142 3144 3143 3142 3143 3144 3145 3146 3148 3149 3150 3151 3152 3155 3155 3155 3158 3162 3164 3164 3165 3166 3167 3168 3169 3171 3172 3174 3174 3175 3177 3177 3179 3181 3181 3181 3181 3182 3184 3186 3188 3190 3193 3195 3197 3199
3124 3123 3122 3121 3121 3121 3121 3120 3119 3119 3118 3118 3117 3117 3116 3116 3117 3116 3115 3117 3118 3118 3119 3120 3120 3121 3121 3122 3123 3124 3126 3127 3127 3129 3130 3133 3134 3135 3136 3136 3138 3139 3141 3141 3141 3140 3141 3143 3145 3146 3147 3147 3149 3151 3152 3153 3153 3154 3158 3161 3163 3165 3165 3165 3166 3168 3171 3171 3170 3170 3171 3173 3175 3176 3177 3179 3179 3177 3178 3180 3182 3184 3186 3188 3190 3193 3195 3197
3124 3124 3123 3122 3121 3121 3121 3121 3120 3120 3120 3119 3118 3117 3117 3117 3117 3116 3116 3118 3118 3118 3119 3120 3120 3121 3121 3122 3123 3124 3125 3126 3127 3128 3130 3132 3134 3134 3135 3136 3138 3138 3139 3139 3139 3138 3139 3140 3143 3145 3145 3146 3148 3150 3151 3152 3152 3154 3157 3159 3161 3163 3165 3165 3166 3168 3172 3171 3167 3167 3168 3169 3173 3174 3173 3174 3173 3172 3175 3178 3180 3182 3184 3186 3188 3190 3193 3195
3125 3124 3123 3122 3122 3122 3122 3121 3121 3121 3121 3120 3119 3118 3118 3118 3117 3117 3118 3119 3119 3120 3120 3120 3120 3120 3120 3121 3122 3124 3125 3126 3127 3128 3130 3132 3133 3134 3135 3136 3137 3137 3137 3138 3138 3138 3138 3139 3140 3142 3144 3146 3147 3148 3150 3150 3151 3153 3155 3157 3158 3160 3162 3164 3165 3168 3171 3169 3165 3165 3166 3167 3169 3170 3170 3170 3169 3171 3174 3175 3177 3179 3181 3184 3186 3188 3191 3193
3125 3124 3124 3123 3122 3122 3122 3122 3122 3122 3122 3122 3121 3119 3118 3118 3118 3118 3119 3120 3120 3120 3120 3120 3120 3120 3121 3121 3122 3124 3125 3126 3127 3128 3129 3131 3132 3133 3134 3135 3136 3137 3137 3137 3138 3138 3138 3138 3139 3140 3142 3144 3145 3146 3148 3149 3149 3151 3153 3154 3157 3158 3160 3161 3162 3164 3166 3164 3161 3162 3165 3167 3166 3166 3167 3169 3170 3171 3173 3176 3177 3179 3180 3182 3184 3186 3189 3192
3125 3125 3124 3124 3123 3123 3123 3123 3123 3123 3123 3122 3121 3120 3119 3118 3119 3120 3120 3120 3120 3120 3121 3120 3120 3120 3121 3121 3122 3124 3125 3126 3127 3129 3130 3131 3132 3133 3134 3135 3136 3136 3136 3137 3137 3138 3137 3137 3138 3139 3140 3142 3143 3144 3145 3146 3147 3149 3151 3153 3154 3156 3159 3160 3160 3160 3161 3161 3160 3161 3164 3166 3164 3165 3167 3169 3170 3171 3174 3178 3179 3180 3181 3183 3184 3186 3188 3190
3125 3125 3124 3124 3124 3124 3124 3124 3124 3124 3124 3123 3121 3120 3119 3119 3121 3121 3120 3121 3121 3120 3120 3120 3120 3120 3121 3122 3123 3124 3125 3127 3127 3129 3130 3130 3131 3132 3133 3135 3135 3135 3136 3136 3137 3137 3137 3137 3137 3137 3138 3140 3142 3143 3144 3145 3146 3148 3150 3151 3152 3153 3155 3157 3157 3157 3157 3158 3159 3161 3163 3163 3162 3163 3165 3168 3171 3173 3176 3178 3180 3181 3182 3183 3184 3185 3187 3188
3125 3125 3125 3125 3125 3125 3124 3124 3125 3125 3124 3123 3121 3120 3120 3121 3122 3121 3120 3121 3121 3120 3120 3120 3120 3121 3121 3122 3123 3124 3125 3126 3127 3128 3129 3130 3131 3132 3133 3135 3134 3135 3136 3137 3136 3136 3135 3135 3135 3136 3137 3139 3141 3143 3143 3144 3145 3147 3148 3150 3151 3152 3153 3154 3154 3154 3154 3155 3159 3161 3161 3161 3161 3162 3163 3166 3171 3173 3175 3178 3179 3179 3181 3181 3182 3183 3185 3187
3125 3125 3125 3125 3125 3126 3126 3125 3125 3125 3124 3123 3122 3121 3122 3123 3124 3123 3122 3122 3121 3120 3120 3119 3119 3120 3121 3123 3124 3124 3125 3126 3127 3128 3129 3130 3131 3131 3133 3134 3133 3133 3135 3135 3135 3135 3134 3134 3134 3134 3136 3138 3141 3142 3142 3144 3145 3146 3147 3148 3149 3151 3152 3152 3152 3152 3151 3154 3160 3160 3159 3160 3162 3163 3164 3167 3170 3172 3173 3175 3177 3178 3178 3179 3180 3181 3183 3185
3125 3126 3126 3126 3126 3127 3127 3127 3126 3126 3125 3123 3123 3123 3124 3125 3125 3124 3124 3123 3123 3122 3121 3120 3120 3121 3121 3123 3123 3123 3124 3126 3127 3127 3128 3130 3131 3132 3133 3132 3132 3132 3133 3134 3135 3134 3133 3133 3133 3134 3135 3137 3139 3140 3141 3144 3145 3145 3146 3147 3149 3150 3151 3151 3151 3151 3151 3155 3160 3161 3159 3160 3162 3163 3165 3168 3170 3171 3172 3173 3175 3176 3176 3178 3179 3180 3182 3183
3126 3126 3127 3127 3128 3128 3129 3128 3127 3126 3126 3124 3124 3125 3125 3125 3125 3125 3125 3125 3124 3123 3122 3122 3122 3122 3122 3123 3123 3123 3124 3125 3126 3126 3127 3129 3131 3132 3132 3131 3131 3132 3132 3133 3134 3133 3133 3133 3132 3133 3134 3136 3137 3138 3140 3142 3144 3144 3145 3146 3147 3148 3149 3150 3150 3151 3152 3156 3162 3163 3162 3161 3162 3162 3164 3167 3168 3169 3171 3173 3173 3174 3175 3176 3177 3179 3180 3182
3126 3127 3127 3128 3128 3128 3129 3129 3128 3127 3126 3126 3126 3126 3126 3126 3126 3126 3126 3125 3124 3123 3123 3123 3123 3122 3123 3123 3123 3125 3125 3124 3125 3127 3128 3129 3131 3132 3131 3131 3131 3131 3132 3132 3133 3133 3133 3133 3132 3131 3132 3135 3136 3137 3139 3141 3142 3143 3144 3145 3146 3147 3148 3148 3149 3149 3150 3155 3161 3164 3165 3163 3162 3162 3163 3165 3166 3167 3169 3172 3172 3173 3174 3174 3175 3177 3179 3181
3127 3127 3127 3127 3127 3128 3129 3129 3129 3128 3127 3127 3127 3127 3127 3127 3127 3126 3126 3125 3124 3124 3124 3124 3124 3124 3124 3124 3124 3125 3126 3125 3125 3128 3129 3130 3131 3131 3132 3131 3131 3131 3132 3132 3133 3133 3133 3133 3132 3131 3132 3134 3135 3136 3138 3140 3142 3143 3143 3145 3146 3147 3147 3147 3147 3147 3148 3151 3157 3162 3165 3163 3162 3163 3163 3164 3166 3167 3168 3171 3171 3171 3172 3173 3174 3176 3178 3179
3127 3128 3127 3127 3127 3128 3129 3129 3129 3129 3128 3128 3128 3128 3128 3128 3128 3127 3127 3126 3126 3125 3125 3125 3125 3125 3125 3125 3125 3125 3127 3127 3127 3128 3130 3131 3132 3132 3132 3131 3131 3131 3131 3132 3133 3132 3132 3133 3132 3131 3131 3133 3134 3136 3138 3140 3141 3142 3143 3144 3145 3146 3147 3147 3148 3147 3147 3149 3152 3156 3160 3161 3161 3162 3163 3164 3166 3166 3167 3170 3171 3170 3171 3173 3174 3176 3177 3178
3128 3128 3128 3127 3127 3128 3129 3129 3129 3129 3129 3129 3129 3129 3129 3129 3128 3128 3127 3127 3126 3126 3126 3126 3126 3126 3126 3125 3126 3127 3128 3128 3128 3129 3130 3131 3132 3133 3132 3132 3132 3131 3131 3132 3132 3132 3132 3132 3133 3132 3131 3132 3133 3135 3137 3139 3140 3141 3142 3144 3145 3145 3146 3146 3147 3147 3146 3148 3149 3151 3155 3159 3160 3162 3162 3164 3166 3165 3166 3169 3171 3171 3171 3173 3175 3176 3177 3178
3128 3128 3128 3129 3129 3129 3129 3129 3129 3129 3130 3130 3130 3130 3129 3129 3129 3129 3128 3127 3127 3127 3126 3125 3126 3126 3126 3126 3127 3128 3129 3129 3130 3130 3131 3132 3133 3133 3132 3132 3132 3132 3132 3132 3132 3133 3133 3133 3133 3133 3132 3132 3133 3135 3136 3138 3140 3141 3142 3143 3143 3143 3144 3144 3145 3145 3145 3147 3147 3150 3156 3159 3160 3161 3162 3163 3166 3167 3166 3168 3171 3171 3172 3173 3175 3176 3177 3179
3128 3128 3129 3129 3129 3130 3130 3130 3130 3130 3130 3130 3130 3130 3130 3130 3130 3129 3129 3128 3128 3128 3127 3127 3127 3127 3127 3127 3127 3128 3129 3130 3131 3131 3132 3133 3133 3133 3132 3132 3132 3132 3132 3132 3132 3133 3134 3134 3134 3133 3133 3134 3135 3136 3137 3138 3139 3141 3142 3141 3140 3141 3142 3143 3143 3143 3144 3145 3145 3148 3155 3158 3159 3161 3162 3163 3166 3166 3167 3169 3170 3171 3172 3173 3174 3175 3177 3178
3128 3128 3129 3130 3130 3130 3130 3130 3130 3130 3130 3130 3130 3130 3130 3130 3130 3130 3129 3129 3129 3129 3128 3128 3128 3128 3128 3128 3128 3129 3130 3130 3131 3131 3132 3133 3132 3133 3133 3133 3133 3133 3132 3133 3133 3134 3134 3135 3135 3134 3135 3137 3139 3139 3139 3139 3140 3141 3140 3139 3139 3140 3141 3141 3142 3142 3142 3144 3145 3145 3150 3155 3158 3160 3162 3164 3166 3166 3167 3171 3172 3172 3173 3174 3175 3175 3176 3177
3128 3128 3128 3129 3130 3130 3131 3130 3130 3130 3130 3130 3131 3131 3131 3130 3130 3130 3130 3130 3130 3129 3128 3129 3128 3128 3129 3130 3129 3130 3130 3131 3131 3131 3132 3133 3133 3133 3133 3133 3133 3133 3133 3133 3134 3134 3134 3134 3135 3135 3137 3139 3140 3140 3140 3140 3141 3140 3138 3138 3139 3139 3140 3140 3141 3141 3141 3143 3145 3145 3147 3151 3156 3159 3161 3164 3165 3166 3167 3171 3172 3173 3173 3174 3175 3175 3176 3176
3128 3128 3128 3129 3129 3130 3131 3130 3130 3130 3130 3131 3131 3131 3131 3130 3130 3130 3130 3130 3130 3130 3129 3129 3129 3129 3130 3131 3131 3131 3132 3132 3132 3132 3133 3133 3134 3133 3134 3134 3133 3133 3133 3133 3134 3134 3134 3134 3135 3136 3137 3139 3140 3139 3140 3141 3140 3138 3138 3138 3139 3140 3140 3140 3140 3140 3141 3143 3145 3146 3146 3148 3153 3158 3161 3163 3165 3166 3168 3170 3172 3173 3174 3175 3175 3175 3175 3175
3128 3128 3128 3128 3129 3130 3130 3130 3130 3131 3131 3131 3131 3131 3130 3130 3130 3131 3131 3130 3130 3130 3130 3130 3130 3131 3131 3131 3132 3132 3132 3132 3133 3134 3134 3134 3134 3134 3134 3133 3133 3133 3133 3133 3133 3134 3134 3134 3135 3136 3137 3139 3139 3139 3140 3140 3139 3138 3138 3139 3140 3141 3142 3142 3142 3142 3142 3143 3144 3147 3148 3149 3152 3157 3161 3163 3166 3167 3168 3170 3172 3173 3174 3175 3175 3174 3174 3174
3128 3128 3129 3129 3129 3130 3131 3131 3131 3131 3131 3131 3131 3131 3131 3131 3131 3131 3131 3131 3131 3130 3130 3130 3131 3131 3131 3131 3132 3132 3133 3134 3134 3135 3135 3134 3134 3134 3134 3134 3134 3134 3134 3134 3134 3134 3134 3134 3135 3136 3137 3138 3138 3139 3139 3139 3139 3139 3139 3140 3141 3142 3142 3142 3143 3143 3143 3143 3143 3145 3149 3152 3155 3158 3161 3164 3166 3167 3168 3169 3171 3173 3174 3174 3173 3173 3172 3173
3129 3129 3129 3129 3130 3130 3131 3131 3131 3131 3131 3131 3131 3131 3132 3132 3132 3132 3132 3132 3131 3131 3131 3131 3131 3131 3131 3131 3131 3132 3133 3134 3134 3134 3135 3134 3135 3135 3135 3135 3135 3135 3135 3134 3134 3134 3134 3134 3134 3136 3137 3138 3139 3139 3139 3139 3139 3140 3141 3142 3142 3143 3144 3144 3143 3143 3144 3145 3145 3147 3150 3154 3157 3160 3162 3163 3164 3166 3167 3168 3170 3172 3173 3172 3172 3172 3172 3172
3129 3129 3129 3130 3131 3131 3131 3131 3131 3131 3131 3131 3131 3131 3132 3132 3132 3132 3132 3133 3132 3132 3131 3131 3131 3131 3131 3131 3131 3131 3132 3133 3133 3134 3134 3135 3135 3135 3135 3135 3135 3136 3135 3135 3134 3134 3134 3134 3134 3136 3137 3138 3139 3140 3139 3140 3140 3141 3142 3143 3142 3143 3145 3145 3145 3144 3144 3145 3147 3149 3151 3154 3157 3160 3161 3163 3164 3165 3166 3167 3169 3171 3172 3171 3171 3171 3172 3173
3128 3129 3130 3130 3131 3131 3131 3131 3131 3131 3131 3131 3131 3131 3132 3132 3132 3132 3132 3132 3132 3132 3132 3132 3132 3131 3131 3132 3132 3132 3132 3133 3133 3134 3135 3135 3135 3135 3135 3135 3136 3136 3136 3135 3135 3135 3135 3135 3135 3137 3138 3139 3139 3140 3139 3139 3141 3142 3143 3144 3144 3144 3145 3146 3146 3146 3146 3146 3147 3149 3151 3153 3156 3159 3161 3162 3164 3164 3166 3167 3169 3171 3171 3171 3171 3171 3172 3173